RH
29 29 30 34 30 27 26 26 28 25 20 21 29 40 42 43 48 52 52 55 54 51 49 53 50 50 54 59 56 56 51 46 47 50 54 52 45 53 56 60 72 69 57 57 54 53 48
24 28 29 34 33 31 27 25 27 29 24 20 24 35 43 47 55 59 59 58 56 54 52 51 56 56 56 59 53 55 53 49 50 52 53 57 52 49 58 61 68 69 63 61 58 55 49
24 23 26 31 33 35 31 30 26 29 27 22 23 28 39 48 59 63 65 63 66 59 56 53 60 61 65 56 53 51 47 44 46 47 51 51 58 59 58 61 60 72 68 65 60 58 51
31 27 23 25 31 36 37 36 32 28 31 29 25 25 34 46 60 62 67 68 69 69 60 57 60 70 66 54 52 50 49 48 43 43 43 51 58 58 73 73 68 69 77 73 63 58 52
32 32 32 32 30 32 37 38 39 32 32 35 34 26 29 44 61 61 67 70 74 74 68 63 62 71 68 56 51 53 53 49 49 47 45 50 62 62 67 82 81 78 70 66 71 60 53
32 33 40 41 34 32 35 38 41 40 34 36 40 31 28 38 61 64 71 76 80 83 80 81 81 78 65 62 59 53 55 55 56 56 55 55 59 63 68 82 87 70 70 65 66 60 56
38 32 42 42 41 36 35 38 41 43 39 38 41 36 30 33 50 62 72 75 84 90 88 83 80 75 75 72 69 65 61 61 63 65 69 64 70 70 53 67 70 69 72 67 60 59 58
50 39 40 43 42 42 37 37 39 44 45 42 45 40 34 35 46 64 69 73 82 89 92 92 90 88 86 84 80 77 72 71 71 68 69 81 85 59 48 62 85 77 79 64 64 63 58
68 55 46 44 44 45 42 39 43 48 49 50 47 44 41 42 45 58 67 76 83 92 94 89 90 91 94 93 88 86 78 74 69 72 75 86 67 65 65 77 91 86 73 62 67 68 56
77 69 61 48 48 51 58 48 47 48 50 54 55 49 49 52 51 51 59 68 82 95 95 84 84 89 96 97 93 88 87 79 73 71 80 89 81 94 79 80 88 92 70 67 72 72 66
99 96 73 67 60 53 56 58 52 49 53 57 62 59 55 58 57 54 54 67 85 98 95 83 88 89 95 97 88 81 69 78 77 74 93 82 86 92 84 90 87 91 75 70 77 72 74
98 91 89 72 66 56 57 66 51 50 56 60 66 68 64 67 57 59 56 73 94 98 94 93 92 95 95 97 89 83 68 68 82 84 95 85 82 87 73 92 87 89 76 79 79 74 69
87 98 99 92 63 68 55 72 54 53 56 62 69 73 73 74 59 63 64 85 98 97 90 97 97 97 97 96 93 84 80 79 89 90 97 91 89 89 87 98 97 97 87 94 90 87 59
78 98 98 98 71 72 58 72 58 57 56 63 72 76 75 78 69 64 74 95 97 88 92 97 97 97 98 91 78 72 89 87 87 84 99 93 97 93 92 97 94 95 85 72 68 64 54
74 95 98 97 79 72 75 77 61 58 58 65 75 76 76 81 74 69 86 98 95 92 95 97 98 98 96 85 75 80 84 86 80 80 98 89 92 91 88 94 91 94 84 70 63 54 56
68 92 98 98 86 83 82 80 61 60 61 69 76 77 78 83 72 75 94 96 96 95 96 97 95 74 75 74 77 89 89 74 74 82 90 94 96 95 97 94 92 88 78 75 61 61 58
73 87 97 97 92 86 81 82 62 62 65 73 77 76 81 76 73 82 97 97 97 95 97 98 90 67 67 77 82 79 74 67 67 76 90 97 98 93 93 95 86 95 88 71 60 56 58
70 83 98 96 98 88 88 81 62 64 68 75 77 75 77 78 73 90 98 97 96 95 94 97 88 60 62 66 75 74 71 67 63 76 95 95 96 99 91 77 82 83 87 70 64 61 53
74 79 93 96 97 85 85 85 64 65 70 75 78 76 78 78 76 96 97 97 96 97 89 89 66 57 61 72 69 74 71 61 79 71 88 85 84 98 96 82 84 85 76 72 69 61 55
79 85 95 96 96 88 91 84 65 67 73 77 77 78 81 73 80 98 98 97 97 92 86 72 64 59 61 66 59 66 76 70 77 69 86 87 80 75 71 65 71 81 79 69 67 66 58
79 88 93 97 98 93 88 84 68 69 75 80 78 72 77 68 87 98 97 97 97 94 86 80 85 69 63 66 61 71 74 77 81 73 78 81 72 65 63 59 62 70 70 70 68 63 56
80 82 89 97 97 84 91 88 69 71 76 80 77 71 74 69 74 96 97 97 97 95 85 90 89 79 75 64 50 65 70 81 79 78 75 77 74 65 63 60 58 58 58 58 57 55 56
81 77 89 98 96 86 91 86 71 70 74 75 80 79 71 59 64 89 96 96 96 95 92 91 88 79 78 69 65 68 74 75 77 75 78 80 76 70 69 62 63 60 51 50 49 48 49
77 74 90 97 97 78 85 78 73 69 72 76 81 83 81 52 47 76 95 98 97 96 96 90 94 95 82 78 72 75 76 76 75 77 78 80 81 72 73 66 73 52 48 48 48 46 48
70 74 85 95 97 79 95 77 71 69 72 76 82 82 82 55 53 80 94 97 98 98 97 94 90 88 82 79 84 92 93 91 88 82 79 81 85 83 77 74 67 55 52 52 51 48 48
66 81 84 95 97 89 94 78 74 69 73 74 80 85 86 62 51 77 87 93 98 98 97 95 86 84 83 81 84 92 98 96 97 97 85 87 84 86 81 75 71 58 54 51 52 51 46
70 81 82 94 97 90 93 76 67 69 74 72 78 85 85 68 53 77 79 87 97 97 95 91 85 84 90 92 88 87 88 85 92 94 93 90 92 92 93 81 69 59 57 54 56 55 52
72 82 84 93 98 87 91 85 76 73 73 72 75 85 85 68 60 78 81 79 97 97 92 90 94 89 86 87 89 86 83 73 74 76 83 83 88 89 92 90 83 65 61 61 61 58 56
76 83 78 90 97 89 89 79 74 71 71 72 74 82 84 71 67 75 76 77 91 96 95 90 92 91 92 94 87 84 83 77 68 71 72 80 71 71 69 71 69 65 64 63 62 60 57